Location: Warszawa
(52.2500°N, 21.0000°E)
Time: 09:07:40
(UTC+02:00)

Gurwin Techsat 1B - Pass Details

Date: 27 April 2024
Orbit: 811 x 812 km, 98.9° (Epoch: 20 May)

Event Time Altitude Azimuth Distance (km) Brightness Sun altitude
Rises 02:52:56 0° 27° (NNE) 3,348 13.5 -17.3°
Reaches altitude 10° 02:56:06 10° 46° (NE) 2,411 12.3 -17.0°
Maximum altitude 02:59:37 18° 88° (E) 1,923 11.0 -16.7°
Drops below altitude 10° 03:03:07 10° 129° (SE) 2,398 11.0 -16.4°
Sets 03:06:14 0° 149° (SSE) 3,324 11.6 -16.1°
